Location: ???????
(55.3754°N, 39.3545°E)
Time: 07:56:13
(UTC+00:00)

IRS-1A Rocket - Pass Details

Date: 14 April 2026
Orbit: 852 x 930 km, 98.9° (Epoch: 9 May)

Event Time Altitude Azimuth Distance (km) Brightness Sun altitude
Exits shadow 17:26:22 - 154° (SSE) 2,941 6.5 -8.6°
Reaches altitude 10° 17:27:29 10° 154° (SSE) 2,506 6.2 -8.8°
Maximum altitude 17:33:02 76° 70° (ENE) 909 4.3 -9.5°
Drops below altitude 10° 17:38:45 10° 345° (NNW) 2,572 7.5 -10.1°
Sets 17:41:11 0° 344° (NNW) 3,528 8.3 -10.4°
